Regional Weather Roundup
Issued by NWS

Home | Current Version | Previous Version | Text Only | Print | Product List | Glossary Off
Versions: 1 2 3 4 5 6 7 8 9 10 11 12 13 14 15 16 17 18 19 20 21 22 23 24 25 26 27 28 29 30 31 32 33 34 35 36 37 38 39 40 41 42 43 44 45 46 47 48 49 50

000
ASUS43 KBIS 172010
RWRND

NORTH DAKOTA REGIONAL WEATHER ROUNDUP
NATIONAL WEATHER SERVICE BISMARCK ND
300 PM CDT TUE OCT 17 2017

NOTE: "FAIR" INDICATES FEW OR NO CLOUDS BELOW 12,000 FEET WITH NO
SIGNIFICANT WEATHER AND/OR OBSTRUCTIONS TO VISIBILITY.


NDZ001>003-009>011-017-172100-
NORTHWEST NORTH DAKOTA

CITY           SKY/WX    TMP DP  RH WIND       PRES   REMARKS
WILLISTON      SUNNY     76  27  16 W23G29    29.70F
MINOT          SUNNY     75  29  18 SW23G30   29.70F
MINOT AFB      SUNNY     73  31  21 W17G23    29.67F
$$

NDZ018>021-031>035-040>046-172100-
SOUTHWEST NORTH DAKOTA

CITY           SKY/WX    TMP DP  RH WIND       PRES   REMARKS
BISMARCK       SUNNY     79  29  16 W15       29.80F
DICKINSON      SUNNY     75  25  15 W17       29.79
GARRISON         N/A     75  31  19 SW20      29.74F
HETTINGER ARPT SUNNY     76  22  13 W16       29.87F
$$

NDZ004>008-012>016-024-026-027-054-172100-
NORTHEAST NORTH DAKOTA

CITY           SKY/WX    TMP DP  RH WIND       PRES   REMARKS
GRAND FORKS    MOSUNNY   78  38  23 SW17G26   29.73F
GRND FRKS AFB  SUNNY     78  33  20 SW16      29.72F
DEVILS LAKE    SUNNY     71  34  25 SW16      29.72F
$$

NDZ022-023-025-028>030-036>039-047>053-172100-
SOUTHEAST NORTH DAKOTA

CITY           SKY/WX    TMP DP  RH WIND       PRES   REMARKS
FARGO          SUNNY     75  39  27 S18       29.81F
JAMESTOWN      SUNNY     76  30  18 SW14G22   29.78F
$$




USA.gov is the U.S. government's official web portal to all federal, state and local government web resources and services.